Tracking 20093 objects as of 14-Dec-2019
HD Live streaming from Space Station
objects crossing your sky now

COSMOS 2251 DEB

Track COSMOS 2251 DEB now!
10-day predictions


NORAD ID: 35674
Int'l Code: 1993-036APR
Perigee: 687.5 km
Apogee: 880.3 km
Inclination: 74.1 °
Period: 100.4 minutes
Semi major axis: 7154 km
RCS: 0.0076 m2 (small)
Launch date: June 16, 1993
Source: Commonwealth of Independent States (former USSR) (CIS)
Launch site: PLESETSK MISSILE AND SPACE COMPLEX (PKMTR)

Note: This is SATELLITE DEBRIS
aabbcc
Your satellite tracking list
Your tracking list is empty




NASA's NSSDC Master Catalog

Two Line Element Set (TLE):
1 35674U 93036APR 19347.87885979 +.00000465 +00000-0 +15806-3 0  9999
2 35674 074.0685 038.7809 0134700 279.9185 078.6785 14.34485521545752
Source of the keplerian elements: AFSPC